Regional Weather Roundup
Issued by NWS

Home | Current Version | Previous Version | Graphics & Text | Print | Product List | Glossary On
Versions: 1 2 3 4 5 6 7 8 9 10 11 12 13 14 15 16 17 18 19 20 21 22 23 24 25 26 27 28 29 30 31 32 33 34 35 36 37 38 39 40 41 42 43 44 45 46 47 48 49 50
000
ASUS43 KMPX 211010
RWRMN
WEATHER ROUNDUP FOR MINNESOTA
NATIONAL WEATHER SERVICE TWIN CITIES/CHANHASSEN MN
500 AM CDT SAT APR 21 2018


NOTE: "FAIR" INDICATES FEW OR NO CLOUDS BELOW 12,000 FEET WITH NO
SIGNIFICANT WEATHER AND/OR OBSTRUCTIONS TO VISIBILITY. N/A MEANS
CURRENT SKY AND/OR WEATHER CONDITIONS ARE NOT AVAILABLE.

MNZ060>063-068>070-211100-
   Twin Cities Metro

CITY           SKY/WX    TMP DP  RH WIND       PRES   REMARKS
TWIN CITIES    CLOUDY    39  28  64 CALM      30.42S
ST PAUL        FAIR      35  30  82 CALM      30.43S
CRYSTAL        FAIR      34  27  75 CALM      30.41S
BLAINE         FAIR      36  28  75 CALM      30.41S
LAKEVILLE      FAIR      30  28  93 CALM      30.41F
EDEN PRAIRIE   FAIR      36  27  69 CALM      30.41S
SOUTH ST PAUL  FAIR      35  27  70 CALM      30.42S
LAKE ELMO      FAIR      32  30  93 CALM      30.43S
$$
MNZ001>005-007-008-013>017-022>024-027-028-211100-
   Northwest Minnesota

CITY           SKY/WX    TMP DP  RH WIND       PRES   REMARKS
BEMIDJI        FAIR      26  21  82 CALM      30.37S
HALLOCK        FAIR      34  32  93 S9        30.32S WCI  26
ROSEAU         FAIR      36  30  80 S3        30.35S
WARROAD        FAIR      36  30  80 S5        30.36S
THIEF RVR FALL FAIR      34  31  88 S8        30.36S WCI  27
CROOKSTON      FAIR      36  32  87 S8        30.36S
FOSSTON        FAIR      34  28  80 S6        30.37S WCI  29
DETROIT LAKES  FAIR      34  32  93 CALM      30.38F
MOORHEAD       FAIR      32  28  86 SE8       30.38S WCI  25
PARK RAPIDS    FAIR      29  23  78 CALM      30.37S
MAHNOMEN       FAIR      32  29  88 S6        30.37S WCI  27
$$
MNZ006-009>011-018-025>026-211100-
   North Central Minnesota

CITY           SKY/WX    TMP DP  RH WIND       PRES   REMARKS
BAUDETTE       FAIR      30  28  92 SW3       30.36S
FLAG ISLAND    FAIR      30  27  86 CALM      30.35S
INTL FALLS     FAIR      27  24  89 W3        30.36S
WASKISH        FAIR      27  25  93 CALM      30.37F
BIG FORK       FAIR      25  21  86 CALM      30.38S
LONGVILLE      FAIR      23  19  86 CALM      30.39S
GRAND RAPIDS   FAIR      27  22  81 S5        30.41R WCI  22
CRANE LAKE     FAIR      21  19  93 CALM      30.39S
ORR            FAIR      32  19  59 CALM      30.35S
COOK           FAIR      27  21  80 CALM      30.38S
WALKER         FAIR      28  21  74 CALM      30.38R
$$
MNZ012-019>021-037-211100-
   Northeast Minnesota

CITY           SKY/WX    TMP DP  RH WIND       PRES   REMARKS
DULUTH         FAIR      34  20  56 NW5       30.38S WCI  30
ELY            FAIR      25  19  80 CALM      30.38R
HIBBING        FAIR      24  21  88 CALM      30.38S
EVELETH        FAIR      26  23  87 CALM      30.39S
DULUTH HARBOR  FAIR      36  23  60 S5        30.41S
TWO HARBORS    FAIR      41  25  52 NW5       30.37S
SILVER BAY     FAIR      32  21  64 CALM      30.37S
GRAND MARAIS     N/A     29  23  78 CALM      30.38S
G MARAIS ARPRT FAIR      34  18  51 CALM      30.37S
$$
MNZ029>031-032-039>041-046>048-054>057-064-211100-
   West Central Minnesota

CITY           SKY/WX    TMP DP  RH WIND       PRES   REMARKS
FERGUS FALLS   FAIR      34  28  80 SE6       30.38S WCI  29
WHEATON        CLOUDY    32  30  93 SE7       30.40S WCI  26
MORRIS         PTCLDY    34  30  86 SE5       30.39R WCI  30
ALEXANDRIA     FAIR      34  27  75 S5        30.40R WCI  30
ELBOW LAKE     FAIR      32  29  90 E7        30.40R WCI  26
WADENA         FAIR      28  28 100 CALM      30.39R FOG
GLENWOOD       FAIR      34  30  86 S3        30.40S
APPLETON       PTCLDY    34  30  86 CALM      30.39F
BENSON         PTCLDY    34  28  80 CALM      30.42S
ORTONVILLE     PTCLDY    32  30  93 SE5       30.38F FOG     WCI  27
MADISON        CLOUDY    36  34  93 CALM      30.38F FOG
WILLMAR        FAIR      32  30  93 CALM      30.43F
$$
MNZ033>034-036-042>043-049>051-058-059-211100-
   Central Minnesota

CITY           SKY/WX    TMP DP  RH WIND       PRES   REMARKS
ST CLOUD       FAIR      30  26  85 CALM      30.42R
SAUK CENTRE    FAIR      29  28  96 CALM      30.41S
PAYNESVILLE    FAIR      32  31  97 CALM      30.41S
AITKIN         FAIR      21  19  93 CALM      30.39S
PINE RIVER     FAIR      25  19  80 CALM      30.42R
BRAINERD       FAIR      26  22  84 CALM      30.40R
STAPLES        FAIR      27  25  93 CALM      30.40R
LONG PRAIRIE   FAIR      28  28 100 S3        30.41R FOG
LITTLE FALLS   FAIR      28  23  80 CALM      30.42R
LITCHFIELD     FAIR      34  32  93 CALM      30.42R
BUFFALO        FAIR      32  28  86 CALM      30.43R
MAPLE LAKE     FAIR      32  31  94 CALM      30.42S
HUTCHINSON     FAIR      34  32  92 CALM      30.43S
$$
MNZ037-044-045-052-053-211100-
   East Central Minnesota

CITY           SKY/WX    TMP DP  RH WIND       PRES   REMARKS
PRINCETON      FAIR      30  27  86 CALM      30.42R
MORA           FAIR      27  23  86 CALM      30.43R
CAMBRIDGE      FAIR      32  23  69 CALM      30.42S
RUSH CITY      FAIR      30  24  78 CALM      30.42R
MOOSE LAKE     FAIR      27  21  80 CALM      30.40R
HINCKLEY       FAIR      28  23  80 CALM      30.42R
CLOQUET        FAIR      27  19  74 W3        30.39R
MCGREGOR       FAIR      27  23  86 CALM      30.41R
$$
MNZ071>073-080-081-089-090-097-098-211100-
   Southwest Minnesota

CITY           SKY/WX    TMP DP  RH WIND       PRES   REMARKS
MONTEVIDEO     CLOUDY    34  30  86 CALM      30.39F
GRANITE FALLS  CLOUDY    35  32  87 E3        30.40F
CANBY          CLOUDY    36  33  89 CALM      30.38F
MARSHALL       CLOUDY    37  30  75 S5        30.38F
REDWOOD FALLS  PTCLDY    34  29  82 E3        30.39F
OLIVIA         CLOUDY    36  30  80 CALM      30.39F
PIPESTONE      LGT RAIN N/A N/A N/A S8        30.37R
WINDOM         CLOUDY    37  19  48 CALM      30.39S
WORTHINGTON    CLOUDY    38  28  67 S5        30.39S
JACKSON        CLOUDY    36  30  80 CALM      30.40R
TRACY          CLOUDY    40  30  67 S9        30.37F
SLAYTON        CLOUDY    35  31  85 SE6       30.39R WCI  30
$$
MNZ065>067-074>077-082>085-091>093-211100-
   South Central Minnesota

CITY           SKY/WX    TMP DP  RH WIND       PRES   REMARKS
MANKATO        CLOUDY    36  28  73 SE6       30.41F
NEW ULM        CLOUDY    36  27  69 CALM      30.40F
ST JAMES       CLOUDY    34  30  86 CALM      30.42R
FAIRMONT       CLOUDY    36  28  73 CALM      30.41R
GLENCOE        FAIR      35  31  87 CALM      30.41S
OWATONNA       MOCLDY    36  28  75 CALM      30.41S
WASECA         CLOUDY    36  32  87 CALM      30.42S
ALBERT LEA     CLOUDY    36  27  69 CALM      30.40R
$$
MNZ078>079-086>088-094>096-211100-
   Southeast Minnesota

CITY           SKY/WX    TMP DP  RH WIND       PRES   REMARKS
ROCHESTER      CLOUDY    37  25  61 NE5       30.40S
RED WING       FAIR      30  25  80 CALM      30.42S
STANTON        FAIR      32  30  91 CALM      30.40S
DODGE CENTER   FAIR      36  27  69 CALM      30.40S
WINONA         FAIR      34  30  86 CALM      30.41S
AUSTIN         CLOUDY    36  27  69 CALM      30.40S
PRESTON        CLOUDY    33  26  73 CALM      30.40F
$$
ABBREVIATIONS USED IN REMARKS
   TC - TEMPERATURES IN CELSIUS
  WCI - WIND CHILL INDEX
   HX - HEAT INDEX
  VSB - VISIBILITY
$$




USA.gov is the U.S. government's official web portal to all federal, state and local government web resources and services.